Regional Weather Roundup
Issued by NWS

Home | Current Version | Previous Version | Text Only | Print | Product List | Glossary Off
Versions: 1 2 3 4 5 6 7 8 9 10 11 12 13 14 15 16 17 18 19 20 21 22 23 24 25 26 27 28 29 30 31 32 33 34 35 36 37 38 39 40 41 42 43 44 45 46 47 48 49 50

000
ASUS44 KMEG 270800
RWRTN
TENNESSEE HOURLY STATE WEATHER ROUNDUP
NATIONAL WEATHER SERVICE MEMPHIS TN
300 AM CDT FRI MAY 27 2016

TNZ002-004-019-021-049-052-054-088>092-270900-
WEST TENNESSEE

CITY           SKY/WX    TMP DP  RH WIND       PRES   REMARKS
MEMPHIS INTL   CLOUDY    72  66  81 SE7       29.91S
NWS MEMPHIS      N/A     67 N/A N/A MISG        N/A
JACKSON        MOCLDY    67  65  93 CALM      29.94F
DYERSBURG      CLOUDY    66  64  94 SE6       29.93S
UNION CITY     CLEAR     66  66 100 SE3       29.92F
PARIS          CLEAR     64  63  94 SE3       29.96F
LEXINGTON      CLEAR     64  64 100 CALM      29.96S
$$

TNZ008-025-027-028-033-062-065-066-270900-
NORTH MIDDLE TENNESSEE

CITY           SKY/WX    TMP DP  RH WIND       PRES   REMARKS
NASHVILLE      MOCLDY    67  62  84 CALM      30.00S
CLARKSVILLE    CLOUDY    64  63  96 E6        29.99F
COOKEVILLE     CLEAR     61  61 100 CALM      30.04R
CROSSVILLE     CLEAR     66  60  81 S3        30.09S
$$

TNZ061-075-076-078-094-096-097-270900-
SOUTH MIDDLE TENNESSEE

CITY           SKY/WX    TMP DP  RH WIND       PRES   REMARKS
TULLAHOMA      CLEAR     68  64  88 SE5       30.04S
WINCHESTER     CLEAR     66  61  82 CALM      30.04S
COLUMBIA       CLEAR    N/A N/A N/A CALM      29.98S
SHELBYVILLE    CLEAR     70  63  78 SE3       30.02F
$$

TNZ017-018-042-046-047-270900-
NORTHEAST TENNESSEE

CITY           SKY/WX    TMP DP  RH WIND       PRES   REMARKS
TRI CITIES     MOCLDY    61  59  93 CALM      30.13R FOG
$$

TNZ012-013-036-069-073-074-270900-
CENTRAL EAST TENNESSEE

CITY           SKY/WX    TMP DP  RH WIND       PRES   REMARKS
KNOXVILLE      PTCLDY    66  63  90 NE3       30.06S
OAK RIDGE      CLEAR     65  62  90 CALM      30.08F
GATLINBURG     CLEAR     63  61  94 CALM      30.07F
$$

TNZ083-085-099-270900-
SOUTHEAST TENNESSEE

CITY           SKY/WX    TMP DP  RH WIND       PRES   REMARKS
CHATTANOOGA    CLEAR     69  62  78 CALM      30.05S
$$

SKY/WX REPORTED AS FAIR MEANS FEW OR NO CLOUDS BELOW
12 THOUSAND FEET.





USA.gov is the U.S. government's official web portal to all federal, state and local government web resources and services.